Regional Weather Roundup
Issued by NWS

Home | Current Version | Previous Version | Text Only | Print | Product List | Glossary Off
Versions: 1 2 3 4 5 6 7 8 9 10 11 12 13 14 15 16 17 18 19 20 21 22 23 24 25 26 27 28 29 30 31 32 33 34 35 36 37 38 39 40 41 42 43 44 45 46 47 48 49 50

000
ASUS43 KOAX 050802
RWRNE

WEATHER ROUNDUP FOR NEBRASKA
NATIONAL WEATHER SERVICE OMAHA NE
300 AM CDT SAT SEP 05 2015

NOTES: SATELLITE DATA IS BEING USED TO AUGMENT CLOUD COVER ABOVE
       12000 FEET.
       "FAIR" INDICATES FEW OR NO CLOUDS BELOW 12,000 FEET WITH NO
       SIGNIFICANT WEATHER AND/OR OBSTRUCTIONS TO VISIBILITY.

  * THESE STATIONS DO NOT REPORT WEATHER SUCH AS RAIN...SNOW OR FOG.

NEZ001>004-019>022-054>056-050900-
NEBRASKA PANHANDLE

CITY           SKY/WX    TMP DP  RH WIND       PRES   REMARKS
SCOTTSBLUFF    LGT RAIN  71  55  56 SE12      29.88R
ALLIANCE       CLOUDY    72  53  51 S10       29.87S
CHADRON        CLOUDY    72  52  49 SE5       29.81F
SIDNEY         CLOUDY    68  59  73 N7        29.88S
$$

NEZ057>060-069>072-079>082-050900-
SOUTHWEST NEBRASKA

CITY           SKY/WX    TMP DP  RH WIND       PRES   REMARKS
NORTH PLATTE   CLOUDY    72  59  63 E7        29.83F
IMPERIAL       CLOUDY    78  54  43 S13       29.84S
LEXINGTON      PTCLDY    75  63  66 SE10      29.86S
MCCOOK         PTCLDY    80  58  46 S15G25    29.84S
OGALLALA       CLOUDY    74  58  56 CALM      29.84S
$$

NEZ005>010-023>029-035>040-094-050900-
NORTH CENTRAL NEBRASKA

CITY           SKY/WX    TMP DP  RH WIND       PRES   REMARKS
VALENTINE      CLEAR     72  61  68 S5        29.81F
AINSWORTH      PTCLDY    72  63  72 S9        29.83S
BROKEN BOW     MOCLDY    75  63  66 SE6       29.85F
O`NEILL        CLEAR     74  66  75 S8        29.83F
ORD            CLEAR     75  63  66 S6        29.84F
$$

NEZ041-046>049-061>064-073>077-083>087-050900-
SOUTH CENTRAL NEBRASKA

CITY           SKY/WX    TMP DP  RH WIND       PRES   REMARKS
GRAND ISLAND   CLEAR     75  65  70 S16       29.88F
AURORA         CLEAR     74  68  82 S12       29.89S
HASTINGS       CLEAR     75  64  68 S9        29.89F
HEBRON         PTCLDY    76  66  71 S10G16    29.91F
HOLDREGE       CLEAR     75  60  58 S12       29.88S
KEARNEY *      CLEAR     73  61  64 S12       29.88S
YORK           CLEAR     73  68  83 S10       29.90S
$$

NEZ011>018-030>034-042>045-050900-
NORTHEAST NEBRASKA

CITY           SKY/WX    TMP DP  RH WIND       PRES   REMARKS
NORFOLK        PTCLDY    76  67  73 S15       29.86S
BLAIR          MOCLDY    76  67  73 S18G25    29.92S
COLUMBUS *     PTCLDY    75  64  69 S10       29.89S
FREMONT        PTCLDY    77  68  73 SE12      29.90S
TEKAMAH        PTCLDY    75  70  84 S8        29.90S
WAYNE          CLEAR     73  68  83 S12       29.87F
$$

NEZ050>053-065>068-078-088>093-050900-
SOUTHEAST NEBRASKA

CITY           SKY/WX    TMP DP  RH WIND       PRES   REMARKS
LINCOLN        PTCLDY    77  69  76 S13       29.91S
OMAHA EPPLEY   MOCLDY    77  69  76 S13       29.92S
BEATRICE       PTCLDY    76  69  80 S8G16     29.93S
FALLS CITY     CLEAR     76  69  79 S9        29.95R
NEBRASKA CITY  CLEAR     74  66  77 S10       29.94S
PLATTSMOUTH    PTCLDY    74  67  78 SE9       29.94S
$$

NEZ044-045-051>053-067-050900-
OMAHA AREA

CITY           SKY/WX    TMP DP  RH WIND       PRES   REMARKS
OMAHA EPPLEY   MOCLDY    77  69  76 S13       29.92S
BLAIR          MOCLDY    76  67  73 S18G25    29.92S
FREMONT        PTCLDY    77  68  73 SE12      29.90S
MILLARD        PTCLDY    76  69  80 SE9       29.92R
OFFUTT AFB     PTCLDY    74  69  83 SE7       29.92S
PLATTSMOUTH    PTCLDY    74  67  78 SE9       29.94S
WAHOO          FAIR      73  69  87 SE8       29.91S
$$




USA.gov is the U.S. government's official web portal to all federal, state and local government web resources and services.